Rafik Belmadi

Chief Scout - CR Belouizdad
3 Apr 2027
Saturday
Process

Personality

Adaptability (10) Ambition (6) Controversy (2) Loyalty (17) Pressure (15) Professionalism (17) Sportsmanship (8) Temperament (2)

Profile

Coaching Style Democratic
License Continental B
Determination 6
Man Management 5
Motivating 6
Discipline 9
Job Satisfaction
50%
Fatigue
0%
Role Chief Scout
Wage 25.8K p/w
Contract 14.03.2030

Performance

Behaviour Normal
Training Effectiveness
23%
Player Development
20%
Injury Prevention
40%
Tactical Implementation
45%

Recent Events

Attended a recruitment meeting now
Assessed a player now
Assessed a player now
Assessed a player now
Assessed a player 7d ago
Observed a match 7d ago
Assessed a player 7d ago
Assessed a player 7d ago

Currently Monitoring

186
Player Club Status Ability Confidence Watched Last Observed Latest Vote
Mohamed Kanno Al-Hilal Active 133 / 117 40% 3 02.04.2027 -
Yassine Benzia Al-Fayha Active 109 / 115 40% 3 02.04.2027 -
Shayne Lavery Cambridge United Active 119 / 101 40% 1 01.04.2027 -
Abdennour Iheb Belhocini JS Kabylie Active 116 / 114 40% 1 01.04.2027 -
Alfa Semedo Al-Fayha Active 132 / 116 40% 6 31.03.2027 -
Josh Neufville Bradford City Active 110 / 113 40% 1 31.03.2027 -
Hamdi Labidi Olympique Akbou Active 113 / 105 40% 2 30.03.2027 -
Ahmed Bamasud Al-Fayha Active 94 / 96 40% 1 30.03.2027 -
Charlie Webster Burton Albion Active 100 / 110 40% 1 30.03.2027 -
Brian Figueroa Morelia Active 116 / 117 40% 3 28.03.2027 -
Noa Cervantes USM Khenchela Active 98 / 106 40% 1 28.03.2027 -
Miro Dinamo Makhachkala Active 102 / 126 40% 2 27.03.2027 -
Abraham Ofori WAFA Active 97 / 107 40% 3 26.03.2027 -
Adel Bouzida Paradou Active 103 / 89 40% 1 25.03.2027 -
Ihor Krasnopir Polissia Active 108 / 117 40% 1 24.03.2027 -
Danyil Alefirenko Chornomorets Active 123 / 110 40% 1 24.03.2027 -
George Honeyman Blackpool Active 101 / 105 40% 1 22.03.2027 -
Dramane Kamagaté USM Alger Active 100 / 106 40% 3 21.03.2027 -
Jason Al-Fayha Active 139 / 115 40% 9 21.03.2027 -
Ivan Bendera Epicentr Active 105 / 91 40% 1 21.03.2027 -
Harry Cornick AFC Wimbledon Active 101 / 91 40% 1 19.03.2027 -
Fábio Tavares Newport County Active 106 / 97 40% 1 19.03.2027 -
Simon Ramabu Polokwane City Active 121 / 112 40% 5 18.03.2027 -
Josh Dacres-Cogley Stockport County Active 96 / 100 40% 1 18.03.2027 -
Teboho Tau Ajax Cape Town Active 129 / 120 40% 5 17.03.2027 -
Hamza Sakhi Hajer Active 116 / 111 40% 1 17.03.2027 -
Thabo Nodada Maritzburg United Active 96 / 102 40% 4 16.03.2027 -
Edarlyn Reyes Arsenal Tula Active 119 / 105 40% 5 15.03.2027 -
Yevhen Pidlepenets Bukovyna Active 103 / 106 40% 1 15.03.2027 -
Wadhah Zaidi Hajer Active 96 / 93 40% 2 14.03.2027 -
Mohau Nkota Al-Ettifaq Active 127 / 115 40% 1 14.03.2027 -
Younes El Bahraoui Al-Taawoun Active 124 / 108 40% 8 12.03.2027 -
Luther Zwane Platinum Stars Active 91 / 115 40% 2 12.03.2027 -
Charlie Whitaker Tranmere Rovers Active 102 / 110 40% 1 12.03.2027 -
Albert Amoah Hajer Active 90 / 103 40% 1 12.03.2027 -
Valentín Vada Damac Active 122 / 109 40% 2 10.03.2027 -
Ghiles Guenaoui USM Alger Active 109 / 108 40% 2 09.03.2027 -
Lebogang Erasmus Platinum Stars Active 107 / 109 40% 2 07.03.2027 -
Gorka Gorosabel Real Sociedad Active 118 / 105 40% 1 07.03.2027 -
Álvaro Medrán Al-Ettifaq Active 123 / 135 40% 4 06.03.2027 -
Mark Helm Fleetwood Town Active 96 / 101 40% 1 04.03.2027 -
Braian Álvarez Arsenal Tula Active 115 / 91 40% 1 02.03.2027 -
Ali Saleh Al Wasl Active 132 / 117 40% 3 01.03.2027 -
Emanuele Scipioni Monopoli Active 94 / 108 40% 1 28.02.2027 -
Jordhy Thompson Orenburg Active 112 / 115 40% 1 25.02.2027 -
Matías Lacava Vizela Active 120 / 114 40% 1 25.02.2027 -
Tariq Abdullah Damac Active 114 / 112 40% 1 25.02.2027 -
Teboho Tlolane Golden Arrows Active 98 / 105 40% 1 25.02.2027 -
Hamed Al-Ghamdi Al-Wehda Active 120 / 108 40% 1 24.02.2027 -
Daniil Konoplev Dinamo Bryansk Active 95 / 91 40% 1 24.02.2027 -
Bradley Mothiba SuperSport United Active 110 / 105 40% 2 21.02.2027 -
Mohammed Al-Dossary Al-Ra'ed Active 88 / 94 40% 1 21.02.2027 -
Sinoxolo Kwayiba Chippa United Active 129 / 119 40% 1 21.02.2027 -
Trezeguet Al-Riyadh Active 124 / 124 40% 4 19.02.2027 -
Saeed Al-Hamsal Al-Khaleej Active 120 / 99 40% 2 18.02.2027 -
Daniel Kyerewaa Reading Active 103 / 110 40% 3 18.02.2027 -
Erick Ngcobo Black Aces Active 89 / 100 40% 3 16.02.2027 -
Faiz Mattoir Septemvri Active 116 / 99 40% 1 16.02.2027 -
Sultan Mandash Al-Hilal Active 107 / 117 40% 1 15.02.2027 -
Thulani Mabaso Platinum Stars Active 115 / 111 40% 3 14.02.2027 -
Leo Goglichidze Rodina Active 98 / 112 40% 2 14.02.2027 -
Louis Appéré Cambridge United Active 82 / 92 40% 1 14.02.2027 -
Stanislav Biblyk Chaika Active 90 / 97 40% 1 14.02.2027 -
Haman Mandjan Al-Ra'ed Active 98 / 107 40% 1 09.02.2027 -
Maxim Kutovoy Salyut Active 100 / 93 40% 1 08.02.2027 -
Kwame Opoku Asante Kotoko Active 98 / 95 40% 1 08.02.2027 -
Siyanda Ndlovu Hearts of Oak Active 112 / 111 40% 2 05.02.2027 -
Lewis McCann Fleetwood Town Active 83 / 105 40% 2 05.02.2027 -
Velemseni Ndwandwe Golden Arrows Active 120 / 112 40% 2 03.02.2027 -
Gift Ngcobo SuperSport United Active 107 / 105 40% 1 03.02.2027 -
Lebohang Maboe Kaizer Chiefs Active 129 / 110 40% 3 02.02.2027 -
Midana Cassamá Portimonense Active 94 / 110 40% 1 02.02.2027 -
Amos Inusah Wa All Stars Active 110 / 113 40% 1 02.02.2027 -
Václav Sejk Sigma Olomouc Active 128 / 108 40% 1 01.02.2027 -
Jean Charles Ahoua Al-Faisaly Active 86 / 104 40% 1 30.01.2027 -
André Miranda Porto Active 98 / 97 40% 1 30.01.2027 -
Gift Mothiba Black Aces Active 115 / 90 40% 1 29.01.2027 -
Saeed Al Naqbi Al Ahli Active 126 / 115 40% 2 28.01.2027 -
Solly Khunyedi Bloemfontein Celtic Active 106 / 97 40% 2 26.01.2027 -
Mehdi Zeffane ES Mostaganem Active 112 / 111 55% 1 25.01.2027 -
Jay Matete Milton Keynes Dons Active 97 / 119 40% 2 24.01.2027 -
Iker Pozo Rodina Active 129 / 120 40% 1 24.01.2027 -
Nduduzo Sibiya Golden Arrows Active 127 / 112 40% 2 22.01.2027 -
Abdullah Al-Khaibari Al-Nassr Active 100 / 110 40% 1 22.01.2027 -
Nour El Islam Fettouhi JS Saoura Active 108 / 93 40% 1 20.01.2027 -
Dumisani Zuma Bidvest Wits Active 99 / 89 40% 1 18.01.2027 -
Ahmed Al-Ghamdi Al-Ittihad Active 100 / 108 40% 1 16.01.2027 -
Celso Sidney Cherno More Active 103 / 111 40% 1 16.01.2027 -
Antony Medrano Dobrudzha Active 86 / 95 40% 1 14.01.2027 -
Connor Barrett Walsall Active 109 / 111 40% 1 13.01.2027 -
Wandile Duba Bidvest Wits Active 115 / 108 40% 5 11.01.2027 -
Soltmurad Bakaev Rodina Active 100 / 98 40% 1 11.01.2027 -
Yacine Aliane MC Oran Active 105 / 106 40% 1 07.01.2027 -
Agustín Ramírez Inter Active 109 / 108 40% 1 05.01.2027 -
Kyle John Port Vale Active 110 / 101 40% 1 04.01.2027 -
Damián Puebla Orenburg Active 138 / 130 40% 1 04.01.2027 -
Kyreece Lisbie Colchester United Active 119 / 107 40% 1 03.01.2027 -
Abdulmalik Al-Jaber Al-Nassr Active 89 / 115 40% 1 02.01.2027 -
Ben Ahmed Kohili Paradou Active 92 / 109 55% 1 01.01.2027 -
Evidence Mokoena Platinum Stars Active 113 / 100 40% 3 30.12.2026 -
Tenton Yenne Baltika Active 126 / 109 40% 1 30.12.2026 -
Marcus Browne AFC Wimbledon Active 111 / 110 40% 1 28.12.2026 -
Qara Ozobic Inter Active 92 / 109 40% 1 28.12.2026 -
Rivaldo Ngcobo Free State Stars Active 115 / 95 40% 4 27.12.2026 -
Silvère Ganvoula Al-Fayha Active 108 / 118 40% 6 27.12.2026 -
Dániel Lukács Puskas Akademia Active 127 / 115 40% 5 25.12.2026 -
Davit Volkovi Zira Active 129 / 119 40% 2 25.12.2026 -
Moussa Koné Al-Ra'ed Active 129 / 116 40% 1 23.12.2026 -
Dario Vizinger NK Maribor Active 116 / 111 40% 1 22.12.2026 -
Juanjo Narváez Al-Ra'ed Active 100 / 109 40% 4 21.12.2026 -
Martin Sekulić Ural Active 103 / 114 40% 2 21.12.2026 -
Gilson Benchimol Akron Active 96 / 119 40% 2 20.12.2026 -
Matty Stevens AFC Wimbledon Active 90 / 110 40% 1 19.12.2026 -
François Kamano Sochi Active 126 / 111 40% 2 18.12.2026 -
Darío Poveda Nea Salamis Active 112 / 99 40% 1 18.12.2026 -
Hlompho Modiba Black Aces Active 93 / 87 40% 2 17.12.2026 -
Aaron Drinan Swindon Town Active 99 / 98 40% 2 17.12.2026 -
Alexandr Yushin Torpedo Moscow Active 107 / 108 40% 1 17.12.2026 -
Róbert Polievka MTK Budapest Active 123 / 117 40% 2 13.12.2026 -
Stephen Humphrys Bradford City Active 127 / 101 40% 1 13.12.2026 -
Salem Al Kamali Al Jazira Active 126 / 126 40% 5 12.12.2026 -
Mohanad Ali Dibba Active 98 / 121 40% 3 12.12.2026 -
Sam Nombe Milton Keynes Dons Active 122 / 111 40% 1 12.12.2026 -
Ousmane Camara Sharjah Active 102 / 123 40% 1 12.12.2026 -
Bruno Al Jazira Active 112 / 106 40% 4 09.12.2026 -
Jordan Roberts Stevenage Active 123 / 112 40% 1 09.12.2026 -
Firas Ben Larbi Sharjah Rejected 133 / 130 40% 3 07.12.2026 Reject
Barna Tóth Paksi Active 105 / 98 40% 2 07.12.2026 -
Isaac Success Al Shaab Active 106 / 106 40% 5 06.12.2026 -
Zakaria Naïdji MC Alger Active 112 / 109 40% 1 04.12.2026 -
Renato Júnior Al Wasl Active 130 / 113 40% 5 03.12.2026 -
Milan Tučić Honved Active 116 / 96 40% 1 03.12.2026 -
Sory Kaba Al Dhafra Active 132 / 128 40% 2 01.12.2026 -
Karim El Berkaoui Al Dhafra Active 120 / 129 40% 3 30.11.2026 -
Milán Tóth Vasas Active 92 / 112 40% 1 30.11.2026 -
Keagan Manyama Ajax Cape Town Active 97 / 114 40% 1 29.11.2026 -
Jordan Larsson Al-Ettifaq Active 107 / 120 40% 1 29.11.2026 -
Fahad Al-Zubaidi Al-Fateh Active 109 / 113 40% 3 28.11.2026 -
Törles Knöll Al-Ta'ee Active 105 / 94 40% 1 26.11.2026 -
Facundo Kruspzky Al Wahda Active 124 / 126 40% 3 25.11.2026 -
Nicolás Giménez Al Wasl Active 135 / 128 40% 2 25.11.2026 -
Kagiso Malinga Bidvest Wits Active 85 / 107 40% 1 19.11.2026 -
Anatole Abang USM Alger Active 120 / 115 40% 2 16.11.2026 -
Omar Khribin Al Wahda Active 114 / 126 40% 2 13.11.2026 -
Lucas González Estudiantes Active 96 / 104 40% 2 13.11.2026 -
Caio Lucas Al Ain Active 125 / 118 40% 4 12.11.2026 -
Isaac Tshibangu Emirates Club Active 117 / 97 40% 2 12.11.2026 -
Augustine Oladapo Al-Wehda Active 115 / 106 40% 1 12.11.2026 -
Radek Šiler Podbrezova Active 98 / 122 40% 2 09.11.2026 -
Abdulla Anwar Al Fujairah Active 100 / 86 40% 1 09.11.2026 -
Alejandro Melo Temperley Active 124 / 106 40% 1 05.11.2026 -
Carlos Guerreño Najran Active 103 / 110 40% 1 04.11.2026 -
Alimi Sikiru JS Saoura Active 116 / 96 40% 1 03.11.2026 -
Chris Bedia Al Nasr Active 110 / 123 40% 3 02.11.2026 -
Bandar Al Kamali Al Shaab Active 106 / 102 40% 1 01.11.2026 -
Darwin González Al-Wehda Active 133 / 119 40% 1 01.11.2026 -
Amur Kalmykov Spartak Kostroma Active 110 / 111 40% 1 28.10.2026 -
Marcelo Torres Gimnasia La Plata Active 138 / 124 40% 5 27.10.2026 -
Jerome Karelse Golden Arrows Active 92 / 98 40% 2 19.10.2026 -
Roger Martínez Al-Shabab Active 129 / 134 40% 1 17.10.2026 -
Cavid Madatov Khazar Active 93 / 98 40% 1 15.10.2026 -
Mouhameth Diop Al Fujairah Active 100 / 95 40% 1 15.10.2026 -
Mateo Fernández Angusht Active 73 / 82 40% 1 13.10.2026 -
Shota Shekiladze Dila Active 118 / 115 40% 1 11.10.2026 -
Abdulkarim Darisi Al-Hilal Active 102 / 113 40% 1 09.10.2026 -
Rodin Quiñónes Dinamo Batumi Active 122 / 103 40% 2 08.10.2026 -
Giorgos Giakoumakis Al Ain Active 142 / 125 40% 5 04.10.2026 -
Ramón Mierez Al Nasr Active 123 / 117 40% 1 29.09.2026 -
Ramiro Ruiz Rodríguez Atlético Tucumán Active 126 / 129 40% 2 28.09.2026 -
Fabrizio Sartori Independiente Rivadavia Active 101 / 120 40% 1 28.09.2026 -
Nabil Alioui Damac Active 121 / 105 40% 2 26.09.2026 -
Abdoulaye Touré Al Nasr Active 92 / 113 40% 1 26.09.2026 -
Mohammed Marran Al-Nassr Active 85 / 103 40% 1 25.09.2026 -
Zinho Gano Al-Ra'ed Active 131 / 118 40% 1 25.09.2026 -
David Barbona Defensa y Justicia Active 113 / 127 40% 4 24.09.2026 -
Kristian Eriksen Molde Active 138 / 130 40% 1 23.09.2026 -
Wilfried Eza Al-Faisaly Active 99 / 109 40% 1 22.09.2026 -
Hicham Khaloua Al-Ra'ed Active 92 / 105 40% 1 20.09.2026 -
Moussa Dembélé Al-Ettifaq Active 116 / 120 40% 1 15.09.2026 -
Leandro Antunes Al-Riyadh Active 132 / 109 40% 1 31.08.2026 -
Elton Acolatse Al-Hazem Active 108 / 107 40% 1 31.08.2026 -
Abdullah Al-Hamddan Al-Nassr Active 94 / 113 40% 1 29.08.2026 -
Ibrahim Aliyu Houston Dynamo Active 124 / 118 40% 1 25.08.2026 -
Mohammad Alsalkhadi Damac Active 123 / 112 40% 1 21.08.2026 -
Kaku Al Ain Active 131 / 121 40% 1 04.08.2026 -
Theo Bongonda Al-Faisaly Active 139 / 134 40% 1 01.08.2026 -